Location: Dappach
(48.9767°N, 9.6998°E)
Time: 21:54:10
(UTC+00:00)

Genesis I - Pass Details

Date: 13 August 2024
Orbit: 412 x 456 km, 64.5° (Epoch: 12 September)

Event Time Altitude Azimuth Distance (km) Brightness Sun altitude
Exits shadow 01:34:13 30° 125° (SE) 824 4.1 -20.4°
Maximum altitude 01:34:22 30° 120° (ESE) 822 4.2 -20.4°
Drops below altitude 10° 01:37:29 10° 57° (ENE) 1,585 6.6 -20.1°
Sets 01:39:47 0° 47° (NE) 2,475 8.1 -19.9°
